FW8061 Weather Reports


time (UTC)temp
C
wind
direction
speed
KPH
gust
KPH
rain 1hr
cm
rain 24hr
cm
rain mn
cm
humidity
%
barometer
mb
20260510221021 13 296 8.0 22.5 0.00 0.00 0.00 49 1013.5
20260510220038 13 288 6.4 16.1 0.00 0.00 0.00 51 1013.4
20260510215020 13 298 8.0 17.7 0.00 0.00 0.00 52 1013.3
20260510214038 13 301 9.7 17.7 0.00 0.00 0.00 52 1013.1
20260510213037 13 305 9.7 19.3 0.00 0.00 0.00 50 1012.9
20260510212020 14 292 8.0 14.5 0.00 0.00 0.00 44 1012.7
20260510211017 14 274 8.0 17.7 0.00 0.00 0.00 43 1012.4
20260510210018 14 255 3.2 9.7 0.00 0.00 0.00 45 1012.2
20260510205101 14 282 6.4 16.1 0.00 0.00 0.00 44 1012.1
20260510204018 15 295 6.4 19.3 0.00 0.00 0.00 42 1012.0
20260510203039 15 275 6.4 17.7 0.00 0.00 0.00 43 1011.9
20260510202018 15 263 8.0 20.9 0.00 0.00 0.00 43 1011.9
20260510201019 14 211 6.4 19.3 0.00 0.00 0.00 44 1011.8
20260510200019 15 215 8.0 17.7 0.00 0.00 0.00 43 1011.8
20260510195019 15 287 9.7 30.6 0.00 0.00 0.00 43 1011.8
20260510194019 14 282 6.4 22.5 0.00 0.00 0.00 44 1011.8
20260510193019 14 270 8.0 19.3 0.00 0.00 0.00 45 1011.9
20260510192020 14 288 9.7 29.0 0.00 0.00 0.00 46 1011.9
20260510191020 14 285 6.4 16.1 0.00 0.00 0.00 46 1011.7
20260510190018 13 298 9.7 19.3 0.00 0.00 0.00 47 1011.6
20260510185021 13 263 6.4 14.5 0.00 0.00 0.00 48 1011.5
20260510184037 14 243 8.0 16.1 0.00 0.00 0.00 47 1011.5
20260510183017 14 300 9.7 22.5 0.00 0.00 0.00 46 1011.4
20260510182020 14 218 6.4 20.9 0.00 0.00 0.00 46 1011.4
20260510181018 13 299 9.7 19.3 0.00 0.00 0.00 46 1011.2
20260510180019 13 287 8.0 14.5 0.00 0.00 0.00 49 1011.2
20260510175018 13 293 6.4 16.1 0.00 0.00 0.00 50 1011.2
20260510174018 13 282 8.0 19.3 0.00 0.00 0.00 50 1011.1
20260510173018 13 285 6.4 16.1 0.00 0.00 0.00 50 1011.1
20260510172019 13 281 6.4 16.1 0.00 0.00 0.00 51 1011.0
20260510171019 13 258 6.4 14.5 0.00 0.00 0.00 51 1010.9
20260510170019 13 278 8.0 20.9 0.00 0.00 0.00 51 1010.9
20260510165019 14 288 6.4 14.5 0.00 0.00 0.00 52 1010.8
20260510164039 15 209 6.4 19.3 0.00 0.00 0.00 49 1010.6
20260510163016 15 213 8.0 22.5 0.00 0.00 0.00 49 1010.5
20260510162020 15 194 6.4 14.5 0.00 0.00 0.00 48 1010.4
20260510161020 15 207 6.4 12.9 0.00 0.00 0.00 49 1010.4
20260510160017 14 198 8.0 17.7 0.00 0.00 0.00 48 1010.4
20260510155021 14 202 6.4 17.7 0.00 0.00 0.00 48 1010.4
20260510154017 14 202 6.4 16.1 0.00 0.00 0.00 48 1010.3
20260510153017 14 202 8.0 16.1 0.00 0.00 0.00 49 1010.3
20260510152021 14 222 6.4 14.5 0.00 0.00 0.00 53 1010.3
20260510151018 13 225 6.4 19.3 0.00 0.00 0.00 55 1010.2
20260510150019 14 242 6.4 14.5 0.00 0.00 0.00 55 1010.1
20260510145018 14 208 6.4 16.1 0.00 0.00 0.00 54 1010.1
20260510144018 13 200 4.8 11.3 0.00 0.00 0.00 57 1010.1
20260510143018 13 246 6.4 16.1 0.00 0.00 0.00 60 1010.0
20260510142019 13 212 6.4 14.5 0.00 0.00 0.00 59 1009.9
20260510141019 13 219 4.8 12.9 0.00 0.00 0.00 60 1009.8
20260510140019 12 239 4.8 12.9 0.00 0.00 0.00 62 1009.7
20260510135019 13 216 6.4 14.5 0.00 0.00 0.00 62 1009.8
20260510134042 13 214 6.4 12.9 0.00 0.00 0.00 64 1009.7
20260510133019 12 277 4.8 14.5 0.00 0.00 0.00 64 1009.7
20260510132019 12 231 4.8 14.5 0.00 0.00 0.00 66 1009.5
20260510131021 12 242 6.4 14.5 0.00 0.00 0.00 66 1009.4
20260510130020 12 251 6.4 16.1 0.00 0.00 0.00 64 1009.2
20260510125017 12 229 8.0 12.9 0.00 0.00 0.00 66 1009.1
20260510124020 12 257 4.8 11.3 0.00 0.00 0.00 70 1009.0
20260510123021 12 224 4.8 11.3 0.00 0.00 0.00 70 1008.9
20260510122018 12 239 4.8 12.9 0.00 0.00 0.00 70 1009.0
20260510121018 12 261 4.8 9.7 0.00 0.00 0.00 68 1008.9
20260510120045 11 228 4.8 9.7 0.00 0.00 0.00 68 1008.8
20260510115018 11 232 6.4 16.1 0.00 0.00 0.00 69 1008.7
20260510114018 11 215 4.8 12.9 0.00 0.00 0.00 75 1008.6
20260510113027 11 211 3.2 6.4 0.00 0.00 0.00 77 1008.6
20260510112038 11 228 4.8 9.7 0.00 0.00 0.00 79 1008.5
20260510111018 11 208 4.8 11.3 0.00 0.00 0.00 80 1008.4
20260510110018 11 209 6.4 12.9 0.00 0.00 0.00 81 1008.2
20260510105019 11 201 4.8 9.7 0.00 0.00 0.00 82 1007.7
20260510104019 11 210 4.8 11.3 0.00 0.00 0.00 84 1007.6
20260510103019 11 211 6.4 12.9 0.00 0.00 0.00 87 1007.6
20260510102029 11 199 3.2 8.0 0.00 0.00 0.00 90 1007.6
20260510101019 11 198 4.8 9.7 0.00 0.00 0.00 90 1007.6
20260510100029 10 207 3.2 6.4 0.00 0.00 0.00 91 1007.4
20260510095029 10 192 4.8 6.4 0.00 0.00 0.00 91 1007.2
20260510094029 10 216 3.2 6.4 0.00 0.00 0.00 92 1007.1
20260510093030 10 215 3.2 6.4 0.00 0.00 0.00 93 1006.9
20260510092020 10 191 4.8 8.0 0.00 0.00 0.00 93 1006.6
20260510091029 10 194 3.2 6.4 0.00 0.00 0.00 94 1006.7
20260510090031 10 198 3.2 6.4 0.00 0.00 0.00 93 1006.6
20260510085022 10 196 4.8 8.0 0.00 0.00 0.00 93 1006.4
20260510084041 10 197 4.8 11.3 0.00 0.00 0.00 93 1006.5
20260510083022 10 198 6.4 9.7 0.00 0.00 0.00 93 1006.5
20260510082021 10 202 4.8 11.3 0.00 0.00 0.00 93 1006.5
20260510081021 10 192 6.4 11.3 0.00 0.00 0.00 93 1006.3
20260510080021 10 196 6.4 11.3 0.00 0.00 0.00 93 1006.3
20260510075042 10 196 6.4 12.9 0.00 0.00 0.00 93 1006.2
20260510074023 10 205 3.2 8.0 0.00 0.00 0.00 93 1006.2
20260510073022 10 204 6.4 9.7 0.00 0.00 0.00 93 1006.2
20260510072022 10 198 6.4 12.9 0.00 0.00 0.00 93 1006.1
20260510071042 10 191 4.8 11.3 0.00 0.00 0.00 93 1006.0
20260510070022 10 194 6.4 12.9 0.00 0.00 0.00 93 1005.9
20260510065016 10 196 6.4 14.5 0.00 0.00 0.00 93 1005.9
20260510064044 10 194 8.0 14.5 0.00 0.00 0.00 93 1005.8
20260510063023 10 186 6.4 12.9 0.00 0.00 0.00 94 1005.7
20260510062017 10 190 8.0 14.5 0.00 0.00 0.00 94 1005.8
20260510061057 10 182 8.0 14.5 0.00 0.00 0.00 95 1005.8
20260510060023 10 184 9.7 12.9 0.00 0.00 0.00 94 1006.0
20260510055043 10 186 8.0 12.9 0.00 0.00 0.00 93 1006.2
20260510054018 11 186 8.0 16.1 0.00 0.00 0.00 92 1006.3
20260510053019 11 194 6.4 14.5 0.00 0.00 0.00 89 1006.3
20260510052019 11 186 8.0 12.9 0.00 0.00 0.00 87 1006.2
20260510051019 11 197 9.7 16.1 0.00 0.00 0.00 84 1006.3
20260510050020 11 194 8.0 14.5 0.00 0.00 0.00 83 1006.0
20260510045041 11 180 11.3 19.3 0.00 0.00 0.00 82 1006.1
20260510044019 11 176 8.0 16.1 0.00 0.00 0.00 82 1006.0
20260510043017 11 180 8.0 14.5 0.00 0.00 0.00 81 1005.9
20260510042019 11 174 6.4 14.5 0.00 0.00 0.00 81 1005.7
20260510041017 11 182 8.0 20.9 0.00 0.00 0.00 80 1005.5
20260510040017 11 185 8.0 20.9 0.00 0.00 0.00 80 1005.8
20260510035021 11 171 9.7 19.3 0.00 0.00 0.00 80 1005.6
20260510034018 11 180 9.7 19.3 0.00 0.00 0.00 81 1005.9
20260510033017 11 178 6.4 12.9 0.00 0.00 0.00 81 1006.0
20260510032018 11 177 9.7 20.9 0.00 0.00 0.00 82 1006.1
20260510031017 11 173 9.7 17.7 0.00 0.00 0.00 82 1005.9
20260510030018 11 186 9.7 16.1 0.00 0.00 0.00 83 1006.3
20260510025018 11 180 8.0 14.5 0.00 0.00 0.00 83 1006.5
20260510024018 11 181 9.7 19.3 0.00 0.00 0.00 83 1006.6
20260510023018 11 187 9.7 17.7 0.00 0.00 0.00 82 1006.7
20260510022018 11 178 8.0 14.5 0.00 0.00 0.00 82 1006.8
20260510021020 11 180 8.0 19.3 0.00 0.00 0.00 82 1006.9
20260510020019 11 184 9.7 24.1 0.00 0.00 0.00 81 1007.1
20260510015020 11 183 8.0 16.1 0.00 0.00 0.00 81 1007.4
20260510014019 11 176 11.3 19.3 0.00 0.00 0.00 80 1007.1
20260510013016 11 178 8.0 16.1 0.00 0.00 0.00 79 1007.2
20260510012019 11 177 11.3 24.1 0.00 0.00 0.00 77 1007.2
20260510011020 11 176 8.0 17.7 0.00 0.00 0.00 76 1007.2
20260510010021 11 179 11.3 17.7 0.00 0.00 0.00 75 1007.1
20260510005038 12 172 9.7 20.9 0.00 0.00 0.00 74 1007.1
20260510004020 12 192 8.0 17.7 0.00 0.00 0.00 74 1007.3
20260510003017 12 180 9.7 14.5 0.00 0.00 0.00 74 1007.1
20260510002017 12 186 9.7 19.3 0.00 0.00 0.00 74 1007.0
20260510001021 12 187 8.0 17.7 0.00 0.00 0.00 73 1007.1
20260510000018 12 185 6.4 14.5 0.00 0.00 0.00 73 1007.1
20260509235018 12 196 6.4 12.9 0.00 0.00 0.00 73 1007.0
20260509234019 12 183 11.3 24.1 0.00 0.00 0.00 73 1006.9
20260509233018 13 178 9.7 17.7 0.00 0.00 0.00 72 1006.9
20260509232019 13 193 9.7 19.3 0.00 0.00 0.00 70 1006.9
20260509231019 13 184 6.4 12.9 0.00 0.00 0.00 69 1007.0
20260509230020 13 176 11.3 22.5 0.00 0.00 0.00 67 1007.1
20260509225039 14 171 9.7 20.9 0.00 0.00 0.00 65 1007.1
20260509224040 14 199 8.0 14.5 0.00 0.00 0.00 65 1007.2
20260509223040 14 178 9.7 17.7 0.00 0.00 0.00 65 1007.3
20260509222016 15 173 11.3 22.5 0.00 0.00 0.00 63 1007.1